Regional Weather Roundup
Issued by NWS Sterling, VA

Home | Current Version | Previous Version | Text Only | Print | Product List | Glossary On
Versions: 1 2 3 4 5 6 7 8 9 10 11 12 13 14 15 16 17 18 19 20 21 22 23 24 25 26 27 28 29 30 31 32 33 34 35 36 37 38 39 40 41 42 43 44 45 46 47 48 49 50
217
ASUS41 KLWX 032011
RWRLWX

REGIONAL WEATHER ROUNDUP
NATIONAL WEATHER SERVICE BALTIMORE MD/WASHINGTON DC
400 PM EDT TUE MAY 03 2016

Note: "FAIR" indicates few or no clouds below 12,000 feet
with no significant weather and/or obstructions to visibility.
 TC=TEMPERATURE CELSIUS

 * =Non NWS site. Station does not report precipitation (e.g. rain,
    snow, etc.), thunder, or fog.

DCZ001-MDZ009-015-VAZ040>042-051-053>054-032100-
WASHINGTON METRO

CITY           SKY/WX    TMP DP  RH WIND       PRES   REMARKS
WASHINGTON NAT PTSUNNY   72  57  59 N6        29.74F
DULLES         PTSUNNY   69  55  60 N5        29.74F
ANDREWS AFB    PTSUNNY   66  59  78 NE14      29.74F
FT BELVOIR     FAIR      71  56  59 VRB1      29.73F
QUANTICO       CLOUDY    71  58  63 NE9       29.73F THUNDER
COLLEGE PARK*  FAIR      68  55  64 NE8       29.75F
LEESBURG*      PTSUNNY   70  59  68 NE6       29.75F
MANASSAS*      PTSUNNY   72  57  60 NE9       29.73F
GAITHERSBURG*  MOSUNNY   66  55  68 E5        29.79F

$$

MDZ006>007-011-014-032100-
BALTIMORE METRO

CITY           SKY/WX    TMP DP  RH WIND       PRES   REMARKS
BWI AIRPORT    PTSUNNY   64  58  80 E9        29.76F
MD SCIENCE CTR   N/A     65  55  70 MISG      29.78F
MARTIN STATE   PTSUNNY   64  61  88 CALM      29.80S
ANNAPOLIS      MOSUNNY   63  57  81 NE8       29.76F
FORT MEADE*    PTSUNNY   64  57  77 NE8       29.79F

$$

MDZ012-015-019>023-032100-
MARYLAND EASTERN SHORE

CITY           SKY/WX    TMP DP  RH WIND       PRES   REMARKS
OCEAN CITY     CLOUDY    56  55  97 NE9       29.77S FOG
SALISBURY      CLOUDY    71  61  70 NW3       29.73F
CAMBRIDGE*     MOSUNNY   64  59  82 NW3       29.75F
EASTON*        CLOUDY   N/A N/A N/A N8        29.80F

$$

MDZ017>025-032100-
SOUTHERN MARYLAND

CITY           SKY/WX    TMP DP  RH WIND       PRES   REMARKS
PATUXENT RIVER CLOUDY    67  60  78 NE12      29.74F
ST INIGOES     PTSUNNY   69  62  78 N8        29.73F
LEONARDTOWN*   CLOUDY    64  59  82 NE6       29.76F

$$

MDZ003>005-032100-
NORTH CENTRAL MARYLAND

CITY           SKY/WX    TMP DP  RH WIND       PRES   REMARKS
FREDERICK*     PTSUNNY   66  59  77 NE8       29.77F
HAGERSTOWN APT PTSUNNY   69  52  54 NE6       29.74F
WESTMINSTER*   MOSUNNY   64  45  48 NE6       29.76F

$$

MDZ501>502-032100-
WESTERN MARYLAND

CITY           SKY/WX    TMP DP  RH WIND       PRES   REMARKS
OAKLAND*       PTSUNNY   54  45  71 NW7       29.81F
CUMBERLAND*    MOSUNNY   72  46  40 NW9       29.77F

$$

VAZ025>031-032100-
SHENANDOAH VALLEY

CITY           SKY/WX    TMP DP  RH WIND       PRES   REMARKS
WINCHESTER*    RAIN      66  55  68 E3        29.73F
FRONT ROYAL*   CLOUDY    63  61  94 CALM      29.73S
LURAY*         MOCLDY    64  63  94 CALM      29.73F
NEW MARKET*    CLOUDY    65  60  84 W3        29.72F
STAUNTON*      FAIR      65  61  86 CALM      29.76F
WAYNESBORO*    CLOUDY    61  58  90 CALM      29.75F

$$

WVZ021-048>050-054>055-032100-
EASTERN WEST VIRGINIA PANHANDLE

CITY           SKY/WX    TMP DP  RH WIND       PRES   REMARKS
MARTINSBURG    LGT RAIN  66  57  72 E9        29.73F
PETERSBURG*    FAIR      73  53  47 NW14      29.72F

$$

VAZ036>039-050-032100-
CENTRAL FOOTHILLS

CITY           SKY/WX    TMP DP  RH WIND       PRES   REMARKS
CHARLOTTESVILL RAIN      60  56  86 NE7       29.73R
CULPEPER*      TSTM      57  55  90 NW6       29.76R VSB 1
ORANGE*        TSTM      64  55  72 SW21G35   29.79R
GORDONSVILLE*  FOG       58  57  94 N8G18     29.73R VSB 1
WARRENTON*     TSTM      65  56  73 NE5       29.73R

$$

VAZ055>057-032100-
NORTH AND CENTRAL PIEDMONT

CITY           SKY/WX    TMP DP  RH WIND       PRES   REMARKS
FREDERICKSBRG* PTSUNNY   72  61  67 E6        29.71F
STAFFORD*      PTSUNNY   71  57  61 E10       29.76F

$$

NCZ024-NYZ072-PAZ021-071-VAZ022-071-032100-
OTHER REGIONAL OBSERVATIONS

CITY           SKY/WX    TMP DP  RH WIND       PRES   REMARKS
NEW YORK CITY  CLOUDY    53  49  86 NE7       29.84S
PHILADELPHIA   CLOUDY    58  51  78 NE7       29.81R
PITTSBURGH     CLOUDY    62  40  44 NW9G16    29.80F
ROANOKE        FAIR      73  56  54 NW9       29.75F
RICHMOND       PTSUNNY   73  61  65 S7        29.71F
RALEIGH        PTSUNNY   78  63  59 W6        29.75F

$$

ANZ530>537-032100-
MARINE OBSERVATIONS

STATION/POSITION TIME  TEMP    WIND        PRES
                       AIR SEA DIR/SP/G
                 (UTC) (F)     (DEG/KT/KT) (MB)
THOMAS PT LIGHT  2000   59 58   20/ 11/ 13 1009.0F
BALT KEY BRIDGE  1900   60      80/  6/  7 1008.5S
COVE POINT       1900   59     350/  8/ 11 1008.7R
LEWISETTA        1900   66 63  100/  8/  9 1007.5F
SOLOMONS ISLAND  1900   64 62  360/  5/  7   N/A
PINEY POINT      1900          100/  7/  8   N/A

$$





USA.gov is the U.S. government's official web portal to all federal, state and local government web resources and services.